When you browse on this site, cookies collect data to enhance your experience and personalize the content and advertising you see.
Visit our Privacy Policy to learn more. By continuing to use the site, you agree to this use of cookies and data.
  • In Latvia
  • List of Countries
  • For 7 days
  • Water Temperature
  • Weather Map
  • Weather Widgets
  • user-avatar
    Login

    Hourly Weather Pontypridd

    Today, 19 September, Thursday

    Time Temperature Precipitation Wind Pressure Humidity
    00:00 +10°C° 0 mm 2 mps 762 mmHg 88%
    01:00 +10°C° 0 mm 2 mps 762 mmHg 88%
    02:00 +10°C° 0 mm 2 mps 762 mmHg 88%
    03:00 +10°C° 0 mm 2 mps 762 mmHg 88%
    04:00 +10°C° 0 mm 2 mps 762 mmHg 88%
    05:00 +9°C° 0 mm 2 mps 762 mmHg 87%
    06:00 +9°C° 0 mm 2 mps 762 mmHg 87%
    07:00 +12°C° 0 mm 2 mps 762 mmHg 83%
    08:00 +14°C° 0 mm 2 mps 763 mmHg 78%
    09:00 +16°C° 0 mm 2 mps 763 mmHg 74%
    10:00 +17°C° 0 mm 2 mps 763 mmHg 71%
    11:00 +18°C° 0 mm 2 mps 763 mmHg 68%
    12:00 +19°C° 0 mm 2 mps 763 mmHg 65%
    13:00 +19°C° 0 mm 2 mps 762 mmHg 65%
    14:00 +19°C° 0 mm 2 mps 762 mmHg 65%
    15:00 +19°C° 0 mm 2 mps 762 mmHg 64%
    16:00 +18°C° 0 mm 2 mps 762 mmHg 70%
    17:00 +18°C° 0 mm 1 mps 761 mmHg 75%
    18:00 +16°C° 0 mm 1 mps 761 mmHg 81%
    19:00 +15°C° 0 mm 2 mps 761 mmHg 83%
    20:00 +14°C° 0 mm 2 mps 761 mmHg 85%
    21:00 +13°C° 0 mm 2 mps 761 mmHg 87%
    22:00 +13°C° 0 mm 2 mps 761 mmHg 88%
    23:00 +12°C° 0 mm 2 mps 761 mmHg 89%

    Tomorrow, 20 September, Friday

    Time Temperature Precipitation Wind Pressure Humidity
    00:00 +12°C° 0 mm 2 mps 760 mmHg 90%
    01:00 +11°C° 0 mm 3 mps 760 mmHg 90%
    02:00 +10°C° 0 mm 3 mps 760 mmHg 91%
    03:00 +10°C° 0 mm 3 mps 759 mmHg 91%
    04:00 +10°C° 0 mm 3 mps 759 mmHg 91%
    05:00 +8°C° 0 mm 4 mps 758 mmHg 92%
    06:00 +8°C° 0 mm 4 mps 758 mmHg 93%
    07:00 +10°C° 0 mm 4 mps 758 mmHg 87%
    08:00 +12°C° 0 mm 5 mps 758 mmHg 81%
    09:00 +13°C° 0 mm 6 mps 758 mmHg 75%
    10:00 +15°C° 0 mm 6 mps 757 mmHg 70%
    11:00 +16°C° 0 mm 7 mps 756 mmHg 65%
    12:00 +17°C° 0 mm 7 mps 756 mmHg 60%
    13:00 +17°C° 0 mm 7 mps 755 mmHg 59%
    14:00 +18°C° 0 mm 7 mps 754 mmHg 58%
    15:00 +18°C° 0 mm 7 mps 753 mmHg 57%
    16:00 +17°C° 0 mm 7 mps 753 mmHg 59%
    17:00 +15°C° 0 mm 7 mps 752 mmHg 61%
    18:00 +14°C° 0 mm 7 mps 751 mmHg 63%
    19:00 +14°C° 0 mm 7 mps 751 mmHg 62%
    20:00 +12°C° 0 mm 7 mps 751 mmHg 61%
    21:00 +11°C° 0 mm 7 mps 751 mmHg 60%
    22:00 +11°C° 0 mm 7 mps 750 mmHg 63%
    23:00 +11°C° 0 mm 7 mps 750 mmHg 67%

    Day after tomorrow, 21 September, Saturday

    Time Temperature Precipitation Wind Pressure Humidity
    00:00 +10°C° 0 mm 6 mps 749 mmHg 70%
    01:00 +10°C° 0 mm 6 mps 749 mmHg 73%
    02:00 +10°C° 0 mm 6 mps 748 mmHg 76%
    03:00 +9°C° 0 mm 6 mps 747 mmHg 79%
    04:00 +9°C° 0 mm 6 mps 747 mmHg 80%
    05:00 +9°C° 0 mm 6 mps 746 mmHg 80%
    06:00 +9°C° 0 mm 6 mps 746 mmHg 81%
    07:00 +10°C° 0 mm 6 mps 745 mmHg 78%
    08:00 +13°C° 0 mm 6 mps 745 mmHg 76%
    09:00 +14°C° 0 mm 6 mps 745 mmHg 74%
    10:00 +16°C° 0 mm 7 mps 745 mmHg 73%
    11:00 +17°C° 0 mm 7 mps 744 mmHg 72%
    12:00 +20°C° 0 mm 7 mps 744 mmHg 71%
    13:00 +20°C° 0 mm 7 mps 743 mmHg 72%
    14:00 +21°C° 0 mm 8 mps 743 mmHg 73%
    15:00 +21°C° 0 mm 8 mps 742 mmHg 74%
    16:00 +21°C° 0 mm 7 mps 742 mmHg 77%
    17:00 +20°C° 0 mm 7 mps 742 mmHg 80%
    18:00 +19°C° 0 mm 6 mps 741 mmHg 82%
    19:00 +19°C° 0.2 mm 6 mps 741 mmHg 85%
    20:00 +17°C° 0.2 mm 5 mps 741 mmHg 88%
    21:00 +16°C° 0.2 mm 5 mps 741 mmHg 90%
    22:00 +17°C° 0 mm 4 mps 740 mmHg 92%
    23:00 +17°C° 0 mm 4 mps 740 mmHg 93%

    22 September, Sunday

    Time Temperature Precipitation Wind Pressure Humidity
    00:00 +17°C° 0 mm 4 mps 740 mmHg 95%
    01:00 +17°C° 0.5 mm 4 mps 740 mmHg 96%
    02:00 +17°C° 0.5 mm 4 mps 740 mmHg 96%
    03:00 +17°C° 0.5 mm 4 mps 740 mmHg 97%
    04:00 +16°C° 0.4 mm 3 mps 740 mmHg 97%
    05:00 +16°C° 0.4 mm 2 mps 740 mmHg 96%
    06:00 +16°C° 0.4 mm 1 mps 739 mmHg 96%
    07:00 +16°C° 0.7 mm 2 mps 739 mmHg 94%
    08:00 +16°C° 0.7 mm 3 mps 739 mmHg 92%
    09:00 +16°C° 0.7 mm 3 mps 739 mmHg 90%
    10:00 +17°C° 0.3 mm 4 mps 740 mmHg 86%
    11:00 +17°C° 0.3 mm 4 mps 740 mmHg 81%
    12:00 +17°C° 0.3 mm 5 mps 740 mmHg 77%
    13:00 +18°C° 0.4 mm 4 mps 740 mmHg 77%
    14:00 +18°C° 0.4 mm 4 mps 740 mmHg 77%
    15:00 +18°C° 0.4 mm 4 mps 740 mmHg 77%
    16:00 +17°C° 0.5 mm 4 mps 740 mmHg 82%
    17:00 +15°C° 0.5 mm 5 mps 741 mmHg 87%
    18:00 +14°C° 0.5 mm 6 mps 741 mmHg 92%
    19:00 +13°C° 0 mm 6 mps 742 mmHg 92%
    20:00 +11°C° 0 mm 6 mps 742 mmHg 92%
    21:00 +10°C° 0 mm 6 mps 743 mmHg 92%
    22:00 +10°C° 0 mm 5 mps 743 mmHg 93%
    23:00 +11°C° 0 mm 4 mps 744 mmHg 93%

    23 September, Monday

    Time Temperature Precipitation Wind Pressure Humidity
    00:00 +10°C° 0 mm 4 mps 744 mmHg 93%
    01:00 +10°C° 0 mm 3 mps 744 mmHg 93%
    02:00 +10°C° 0 mm 3 mps 744 mmHg 93%
    03:00 +10°C° 0 mm 3 mps 744 mmHg 93%
    04:00 +10°C° 0 mm 3 mps 744 mmHg 94%
    05:00 +10°C° 0 mm 3 mps 744 mmHg 94%
    06:00 +10°C° 0 mm 4 mps 744 mmHg 95%
    07:00 +11°C° 0.9 mm 4 mps 743 mmHg 95%
    08:00 +12°C° 0.9 mm 5 mps 743 mmHg 96%
    09:00 +12°C° 0.9 mm 5 mps 742 mmHg 97%
    10:00 +13°C° 1.2 mm 6 mps 741 mmHg 96%
    11:00 +14°C° 1.2 mm 7 mps 740 mmHg 96%
    12:00 +14°C° 1.2 mm 7 mps 740 mmHg 96%
    13:00 +15°C° 1.6 mm 7 mps 739 mmHg 96%
    14:00 +16°C° 1.6 mm 7 mps 739 mmHg 97%
    15:00 +17°C° 1.6 mm 7 mps 738 mmHg 97%
    16:00 +17°C° 0.5 mm 8 mps 738 mmHg 96%
    17:00 +17°C° 0.5 mm 8 mps 738 mmHg 95%
    18:00 +17°C° 0.5 mm 9 mps 739 mmHg 94%
    19:00 +16°C° 0.2 mm 9 mps 739 mmHg 93%
    20:00 +16°C° 0.2 mm 9 mps 740 mmHg 93%
    21:00 +15°C° 0.2 mm 9 mps 740 mmHg 92%
    22:00 +15°C° 0.2 mm 8 mps 740 mmHg 92%
    23:00 +15°C° 0.2 mm 8 mps 740 mmHg 93%

    24 September, Tuesday

    Time Temperature Precipitation Wind Pressure Humidity
    00:00 +15°C° 0.2 mm 8 mps 740 mmHg 93%
    01:00 +15°C° 0.1 mm 8 mps 740 mmHg 93%
    02:00 +15°C° 0.1 mm 8 mps 740 mmHg 93%
    03:00 +13°C° 0.1 mm 8 mps 740 mmHg 94%
    04:00 +13°C° 0 mm 8 mps 740 mmHg 94%
    05:00 +14°C° 0 mm 7 mps 740 mmHg 95%
    06:00 +14°C° 0 mm 6 mps 740 mmHg 95%
    07:00 +15°C° 0.1 mm 6 mps 740 mmHg 94%
    08:00 +15°C° 0.1 mm 5 mps 740 mmHg 93%
    09:00 +15°C° 0.1 mm 5 mps 739 mmHg 92%
    10:00 +16°C° 1 mm 5 mps 739 mmHg 93%
    11:00 +16°C° 1 mm 5 mps 739 mmHg 94%
    12:00 +16°C° 1 mm 6 mps 738 mmHg 95%
    13:00 +16°C° 0.6 mm 7 mps 738 mmHg 91%
    14:00 +16°C° 0.6 mm 9 mps 738 mmHg 88%
    15:00 +17°C° 0.6 mm 10 mps 738 mmHg 84%
    16:00 +16°C° 0.1 mm 9 mps 738 mmHg 86%
    17:00 +15°C° 0.1 mm 9 mps 738 mmHg 87%
    18:00 +13°C° 0.1 mm 8 mps 738 mmHg 89%
    19:00 +12°C° 0.1 mm 8 mps 739 mmHg 90%
    20:00 +12°C° 0.1 mm 8 mps 739 mmHg 90%
    21:00 +12°C° 0.1 mm 7 mps 739 mmHg 90%
    22:00 +12°C° 0.2 mm 7 mps 739 mmHg 90%
    23:00 +12°C° 0.2 mm 7 mps 739 mmHg 90%
    Show more